Flag for Congo Weather past 2 weeks in Brazzaville, Congo

Now
68 °F

Passing clouds.


Feels Like: 68 °F
Forecast: 72 / 89 °F
Wind: 2 mph from North

Location: Brazzaville / Maya-Maya

Current Time: Aug 28, 2014 at 6:51:48 AM

Latest Report: Aug 28, 2014 at 6:00 AM


Visibility: 5 mi

Pressure: 29.98 "Hg

Humidity: 88%

Dew point: 64 °F

Location of BrazzavilleLocation

Historic Weather in Brazzaville — Graph

°F

Brazzaville temperature yesterday

Maximum temperature yesterday: 77 °F (at 12:00 AM)
Minimum temperature yesterday: 70 °F (at 6:00 AM)
Average temperature yesterday: 74 °F

Past Weeks' High & Low Weather Summary

 TemperatureHumidityPressure
High91 °F (Aug 26, 3:00 PM)94% (Aug 16, 9:00 AM)30.07 "Hg (Aug 16, 9:00 AM)
Low66 °F (Aug 21, 5:00 AM)41% (Aug 26, 3:00 PM)29.80 "Hg (Aug 26, 4:00 PM)
Average76 °F71%29.97 "Hg
* Reported Aug 13 5:00 AM — Aug 28 5:00 AM, Brazzaville, Weather by CustomWeather, © 2014

Note: Actual official high and low records may vary slightly from our data, if they occured in-between our weather recording intervals... More about our weather records

Advertising

Brazzaville weather history for previous 24 hours

 ConditionsComfort  
Time TempWeatherWind HumidityBarometerVisibility
5:00 AM
Aug 28
68 °FClear.2 mph88%29.98 "Hg5 mi
4:00 AM68 °FClear.2 mph88%29.95 "Hg5 mi
3:00 AM70 °FClear.1 mph88%29.95 "Hg5 mi
2:00 AM70 °FClear.2 mph88%29.98 "Hg5 mi
1:00 AM70 °FClear.1 mph88%29.98 "Hg5 mi
12:00 AM72 °FClear.2 mph83%30.01 "Hg5 mi
11:00 PM
Aug 27
72 °FClear.1 mph83%30.04 "Hg5 mi
10:00 PM72 °FClear.No wind83%30.04 "Hg5 mi
9:00 PM73 °FClear.3 mph78%29.98 "Hg5 mi
8:00 PM73 °FClear.3 mph78%29.95 "Hg4 mi
6:00 PM75 °FPassing clouds.8 mph69%29.92 "Hg4 mi
5:00 PM75 °FMostly cloudy.6 mph69%29.95 "Hg4 mi
3:00 PM77 °FPartly sunny.2 mph65%29.92 "HgN/A
2:00 PM75 °FPartly sunny.3 mph69%29.95 "HgN/A
1:00 PM75 °FMostly cloudy.5 mph69%29.95 "HgN/A
12:00 PM73 °FMostly cloudy.5 mph78%29.98 "HgN/A
11:00 AM73 °FMostly cloudy.7 mph74%30.01 "HgN/A
10:00 AM73 °FMore clouds than sun.8 mph74%30.01 "Hg5 mi
9:00 AM72 °FMore clouds than sun.8 mph78%30.01 "Hg4 mi
8:00 AM72 °FMore clouds than sun.6 mph78%30.01 "Hg4 mi
7:00 AM70 °FMostly cloudy.6 mph83%29.98 "Hg4 mi
6:00 AM70 °FMore clouds than sun.6 mph83%29.98 "Hg4 mi
Weather by CustomWeather, © 2014

See weather overviewHow to use our weather pages